Time,TemperatureF,DewpointF,PressureIn,WindDirection,WindDirectionDegrees,WindSpeedMPH,WindSpeedGustMPH,Humidity,HourlyPrecipIn,Conditions,Clouds,dailyrainin,SoftwareType,DateUTC
2013-07-31 00:22:00,54.0,46.0,-100.00,ESE,123,2.0,4.0,73,0.00,,,0.00,,2013-07-31 07:22:00,
2013-07-31 00:52:00,54.0,46.0,-100.00,ESE,123,2.0,4.0,73,0.00,,,0.00,,2013-07-31 07:52:00,
2013-07-31 00:53:00,54.0,46.0,-100.00,ESE,114,2.0,3.0,74,0.00,,,0.00,,2013-07-31 07:53:00,
2013-07-31 01:22:00,54.0,46.0,-100.00,ESE,114,2.0,3.0,74,0.00,,,0.00,,2013-07-31 08:22:00,
2013-07-31 01:32:00,54.0,46.0,-100.00,ESE,114,2.0,3.0,74,0.00,,,0.00,,2013-07-31 08:32:00,
2013-07-31 01:42:00,54.0,46.0,-100.00,ESE,114,2.0,3.0,74,0.00,,,0.00,,2013-07-31 08:42:00,
2013-07-31 02:22:00,52.0,44.0,-100.00,ESE,117,2.0,4.0,74,0.00,,,0.00,,2013-07-31 09:22:00,
2013-07-31 02:32:00,52.0,44.0,-100.00,ESE,117,2.0,4.0,74,0.00,,,0.00,,2013-07-31 09:32:00,
2013-07-31 02:43:00,52.0,44.0,-100.00,ESE,117,2.0,4.0,74,0.00,,,0.00,,2013-07-31 09:43:00,
2013-07-31 02:52:00,52.0,44.0,-100.00,ESE,117,2.0,4.0,74,0.00,,,0.00,,2013-07-31 09:52:00,
2013-07-31 03:22:00,51.0,39.0,-100.00,ESE,110,2.0,4.0,64,0.00,,,0.00,,2013-07-31 10:22:00,
2013-07-31 03:52:00,51.0,39.0,-100.00,ESE,110,2.0,4.0,64,0.00,,,0.00,,2013-07-31 10:52:00,
2013-07-31 04:22:00,51.0,39.0,-100.00,ESE,111,3.0,5.0,63,-99.99,,,0.00,,2013-07-31 11:22:00,
2013-07-31 04:33:00,51.0,39.0,-100.00,ESE,111,3.0,5.0,63,-99.99,,,0.00,,2013-07-31 11:33:00,
2013-07-31 04:43:00,51.0,39.0,-100.00,ESE,111,3.0,5.0,63,-99.99,,,0.00,,2013-07-31 11:43:00,
2013-07-31 04:52:00,51.0,39.0,-100.00,ESE,111,3.0,5.0,63,-99.99,,,0.00,,2013-07-31 11:52:00,
2013-07-31 05:52:00,50.0,39.0,-100.00,ESE,116,2.0,6.0,67,0.00,,,0.00,,2013-07-31 12:52:00,
2013-07-31 05:53:00,50.0,31.0,-100.00,ESE,115,2.0,5.0,48,-99.99,,,0.00,,2013-07-31 12:53:00,
2013-07-31 06:22:00,50.0,31.0,-100.00,ESE,115,2.0,5.0,48,-99.99,,,0.00,,2013-07-31 13:22:00,
2013-07-31 06:53:00,50.0,29.0,-100.00,ESE,114,3.0,6.0,45,0.00,,,0.00,,2013-07-31 13:53:00,
2013-07-31 07:22:00,50.0,29.0,-100.00,ESE,114,3.0,6.0,45,0.00,,,0.00,,2013-07-31 14:22:00,
2013-07-31 07:34:00,50.0,29.0,-100.00,ESE,114,3.0,6.0,45,0.00,,,0.00,,2013-07-31 14:34:00,
2013-07-31 08:22:00,59.0,41.0,-100.00,ENE,67,2.0,6.0,51,-99.99,,,0.00,,2013-07-31 15:22:00,
2013-07-31 08:33:00,59.0,41.0,-100.00,ENE,67,2.0,6.0,51,-99.99,,,0.00,,2013-07-31 15:33:00,
2013-07-31 08:43:00,59.0,41.0,-100.00,ENE,67,2.0,6.0,51,-99.99,,,0.00,,2013-07-31 15:43:00,
2013-07-31 08:52:00,59.0,41.0,-100.00,ENE,67,2.0,6.0,51,-99.99,,,0.00,,2013-07-31 15:52:00,
2013-07-31 09:22:00,66.0,43.0,-100.00,WNW,286,3.0,5.0,44,0.00,,,0.00,,2013-07-31 16:22:00,
2013-07-31 09:52:00,66.0,43.0,-100.00,WNW,286,3.0,5.0,44,0.00,,,0.00,,2013-07-31 16:52:00,
2013-07-31 09:53:00,75.0,27.0,-100.00,SSE,150,3.0,10.0,17,0.00,,,0.00,,2013-07-31 16:53:00,
2013-07-31 10:12:00,75.0,27.0,-100.00,SSE,150,3.0,10.0,17,0.00,,,0.00,,2013-07-31 17:12:00,
2013-07-31 10:22:00,75.0,27.0,-100.00,SSE,150,3.0,10.0,17,0.00,,,0.00,,2013-07-31 17:22:00,
2013-07-31 10:33:00,75.0,27.0,-100.00,SSE,150,3.0,10.0,17,0.00,,,0.00,,2013-07-31 17:33:00,
2013-07-31 10:43:00,75.0,27.0,-100.00,SSE,150,3.0,10.0,17,0.00,,,0.00,,2013-07-31 17:43:00,
2013-07-31 12:22:00,82.0,22.0,-100.00,NE,45,5.0,19.0,11,0.00,,,0.00,,2013-07-31 19:22:00,
2013-07-31 12:32:00,82.0,22.0,-100.00,NE,45,5.0,19.0,11,0.00,,,0.00,,2013-07-31 19:32:00,
2013-07-31 12:43:00,82.0,22.0,-100.00,NE,45,5.0,19.0,11,0.00,,,0.00,,2013-07-31 19:43:00,
2013-07-31 12:52:00,82.0,22.0,-100.00,NE,45,5.0,19.0,11,0.00,,,0.00,,2013-07-31 19:52:00,
2013-07-31 13:22:00,84.0,30.0,-100.00,WNW,293,4.0,16.0,14,0.00,,,0.00,,2013-07-31 20:22:00,
2013-07-31 13:32:00,84.0,30.0,-100.00,WNW,293,4.0,16.0,14,0.00,,,0.00,,2013-07-31 20:32:00,
2013-07-31 13:42:00,84.0,30.0,-100.00,WNW,293,4.0,16.0,14,0.00,,,0.00,,2013-07-31 20:42:00,
2013-07-31 13:52:00,84.0,30.0,-100.00,WNW,293,4.0,16.0,14,0.00,,,0.00,,2013-07-31 20:52:00,
2013-07-31 13:53:00,84.0,24.0,-100.00,WSW,249,5.0,11.0,11,0.00,,,0.00,,2013-07-31 20:53:00,
2013-07-31 14:22:00,84.0,24.0,-100.00,WSW,249,5.0,11.0,11,0.00,,,0.00,,2013-07-31 21:22:00,
2013-07-31 14:32:00,84.0,24.0,-100.00,WSW,249,5.0,11.0,11,0.00,,,0.00,,2013-07-31 21:32:00,
2013-07-31 14:42:00,84.0,24.0,-100.00,WSW,249,5.0,11.0,11,0.00,,,0.00,,2013-07-31 21:42:00,
2013-07-31 14:53:00,84.0,28.0,-100.00,NNW,343,5.0,9.0,13,0.00,,,0.00,,2013-07-31 21:53:00,
2013-07-31 15:22:00,84.0,28.0,-100.00,NNW,343,5.0,9.0,13,0.00,,,0.00,,2013-07-31 22:22:00,
2013-07-31 15:33:00,84.0,28.0,-100.00,NNW,343,5.0,9.0,13,0.00,,,0.00,,2013-07-31 22:33:00,
2013-07-31 15:42:00,84.0,28.0,-100.00,NNW,343,5.0,9.0,13,0.00,,,0.00,,2013-07-31 22:42:00,
2013-07-31 16:22:00,81.0,39.0,-100.00,West,261,5.0,14.0,22,0.00,,,0.00,,2013-07-31 23:22:00,
2013-07-31 16:32:00,81.0,39.0,-100.00,West,261,5.0,14.0,22,0.00,,,0.00,,2013-07-31 23:32:00,
2013-07-31 16:42:00,81.0,39.0,-100.00,West,261,5.0,14.0,22,0.00,,,0.00,,2013-07-31 23:42:00,
2013-07-31 16:52:00,81.0,39.0,-100.00,West,261,5.0,14.0,22,0.00,,,0.00,,2013-07-31 23:52:00,
2013-07-31 17:22:00,78.0,40.0,-100.00,WNW,289,5.0,10.0,26,0.00,,,0.00,,2013-08-01 00:22:00,
2013-07-31 17:32:00,78.0,40.0,-100.00,WNW,289,5.0,10.0,26,0.00,,,0.00,,2013-08-01 00:32:00,
2013-07-31 17:43:00,78.0,40.0,-100.00,WNW,289,5.0,10.0,26,0.00,,,0.00,,2013-08-01 00:43:00,
2013-07-31 17:52:00,78.0,40.0,-100.00,WNW,289,5.0,10.0,26,0.00,,,0.00,,2013-08-01 00:52:00,
2013-07-31 17:53:00,75.0,40.0,-100.00,West,269,5.0,10.0,28,0.00,,,0.00,,2013-08-01 00:53:00,
2013-07-31 18:22:00,75.0,40.0,-100.00,West,269,5.0,10.0,28,0.00,,,0.00,,2013-08-01 01:22:00,
2013-07-31 18:32:00,75.0,40.0,-100.00,West,269,5.0,10.0,28,0.00,,,0.00,,2013-08-01 01:32:00,
2013-07-31 18:42:00,75.0,40.0,-100.00,West,269,5.0,10.0,28,0.00,,,0.00,,2013-08-01 01:42:00,
2013-07-31 19:12:00,71.0,43.0,-100.00,NW,306,5.0,10.0,36,0.00,,,0.00,,2013-08-01 02:12:00,
2013-07-31 19:22:00,71.0,43.0,-100.00,NW,306,5.0,10.0,36,0.00,,,0.00,,2013-08-01 02:22:00,
2013-07-31 19:32:00,71.0,43.0,-100.00,NW,306,5.0,10.0,36,0.00,,,0.00,,2013-08-01 02:32:00,
2013-07-31 19:43:00,71.0,43.0,-100.00,NW,306,5.0,10.0,36,0.00,,,0.00,,2013-08-01 02:43:00,
2013-07-31 19:52:00,71.0,43.0,-100.00,NW,306,5.0,10.0,36,0.00,,,0.00,,2013-08-01 02:52:00,
2013-07-31 19:53:00,66.0,41.0,-100.00,NW,316,3.0,9.0,40,0.00,,,0.00,,2013-08-01 02:53:00,
2013-07-31 20:22:00,66.0,41.0,-100.00,NW,316,3.0,9.0,40,0.00,,,0.00,,2013-08-01 03:22:00,
2013-07-31 20:32:00,66.0,41.0,-100.00,NW,316,3.0,9.0,40,0.00,,,0.00,,2013-08-01 03:32:00,
2013-07-31 20:43:00,66.0,41.0,-100.00,NW,316,3.0,9.0,40,0.00,,,0.00,,2013-08-01 03:43:00,
2013-07-31 21:22:00,62.0,42.0,-100.00,NE,39,1.0,5.0,47,0.00,,,0.00,,2013-08-01 04:22:00,
2013-07-31 21:33:00,62.0,42.0,-100.00,NE,39,1.0,5.0,47,0.00,,,0.00,,2013-08-01 04:33:00,
2013-07-31 21:43:00,62.0,42.0,-100.00,NE,39,1.0,5.0,47,0.00,,,0.00,,2013-08-01 04:43:00,
2013-07-31 21:52:00,62.0,42.0,-100.00,NE,39,1.0,5.0,47,0.00,,,0.00,,2013-08-01 04:52:00,
2013-07-31 21:53:00,59.0,41.0,-100.00,ENE,70,1.0,4.0,51,0.00,,,0.00,,2013-08-01 04:53:00,
2013-07-31 22:22:00,59.0,41.0,-100.00,ENE,70,1.0,4.0,51,0.00,,,0.00,,2013-08-01 05:22:00,
2013-07-31 22:32:00,59.0,41.0,-100.00,ENE,70,1.0,4.0,51,0.00,,,0.00,,2013-08-01 05:32:00,
2013-07-31 22:43:00,59.0,41.0,-100.00,ENE,70,1.0,4.0,51,0.00,,,0.00,,2013-08-01 05:43:00,
2013-07-31 23:22:00,58.0,39.0,-100.00,East,82,1.0,3.0,49,0.00,,,0.00,,2013-08-01 06:22:00,
2013-07-31 23:32:00,58.0,39.0,-100.00,East,82,1.0,3.0,49,0.00,,,0.00,,2013-08-01 06:32:00,
2013-07-31 23:42:00,58.0,39.0,-100.00,East,82,1.0,3.0,49,0.00,,,0.00,,2013-08-01 06:42:00,
2013-07-31 23:52:00,58.0,39.0,-100.00,East,82,1.0,3.0,49,0.00,,,0.00,,2013-08-01 06:52:00,